Location: Lynch Observatory
(39.9540°N, 75.1861°W)
Time: 20:11:57
(UTC-04:00)

DIWATA 2B (PO-101) - Visible Passes

Search period start: 23 April 2024 00:00
Search period end: 03 May 2024 00:00
Orbit: 576 x 588 km, 98.1° (Epoch: 23 April)

Date Brightness Start Highest point End Pass type
(mag) Time Alt. Az. Time Alt. Az. Time Alt. Az.
23 Apr ? 04:02:21 10° SSE 04:06:20 48° ENE 04:10:21 10° N visible
23 Apr ? 05:39:57 10° WSW 05:41:55 13° W 05:43:54 10° WNW visible
24 Apr ? 04:07:56 10° SSE 04:11:59 56° ENE 04:16:04 10° N visible
25 Apr ? 04:13:31 10° SSE 04:17:38 65° ENE 04:21:46 10° N visible
26 Apr ? 04:19:08 10° SSE 04:23:17 76° ENE 04:27:25 10° N visible
27 Apr ? 04:24:45 10° SSE 04:28:54 88° ENE 04:33:04 10° NNW visible
28 Apr ? 04:30:23 10° S 04:34:33 80° W 04:38:43 10° NNW visible
29 Apr ? 03:04:43 10° ENE 03:05:26 10° ENE 03:06:09 10° NE visible
29 Apr ? 04:36:03 10° S 04:40:10 69° WSW 04:44:19 10° NNW visible
30 Apr ? 03:09:24 10° E 03:10:59 12° ENE 03:12:33 10° NE visible
30 Apr ? 04:41:42 10° S 04:45:47 59° W 04:49:53 10° NNW visible
01 May ? 03:14:26 10° E 03:16:31 14° ENE 03:18:36 10° NE visible
01 May ? 04:47:22 10° S 04:51:24 50° W 04:55:27 10° NNW visible
02 May ? 03:19:36 10° ESE 03:22:03 16° ENE 03:24:31 10° NNE visible
02 May ? 04:53:04 10° S 04:57:01 43° W 05:00:59 10° NNW visible
